Location: Ahstedt
(52.2048°N, 10.1060°E)
Time: 23:44:24
(UTC+00:00)

Cosmos 468 Rocket - Pass Details

Date: 18 January 2026
Orbit: 741 x 774 km, 74.0° (Epoch: 7 February)

Event Time Altitude Azimuth Distance (km) Brightness Sun altitude
Exits shadow 05:33:17 10° 335° (NNW) 2,259 6.1 -15.6°
Maximum altitude 05:38:24 88° 65° (ENE) 755 3.9 -14.8°
Drops below altitude 10° 05:43:34 10° 156° (SSE) 2,270 7.0 -14.1°
Sets 05:45:55 0° 156° (SSE) 3,195 7.8 -13.7°
